TimeMDT,TemperatureF,Dew PointF,Humidity,Sea Level PressureIn,VisibilityMPH,Wind Direction,Wind SpeedMPH,Gust SpeedMPH,PrecipitationIn,Events,Conditions,WindDirDegrees,DateUTC
12:53 AM,57.9,30.0,35,29.68,10.0,WSW,9.2,-,N/A,,Clear,240,2013-09-30 06:53:00
1:53 AM,60.1,28.9,31,29.67,10.0,SW,11.5,23.0,N/A,,Clear,230,2013-09-30 07:53:00
2:53 AM,57.9,28.9,33,29.66,10.0,South,5.8,-,N/A,,Clear,190,2013-09-30 08:53:00
3:53 AM,57.9,30.9,36,29.64,10.0,SSW,11.5,26.5,N/A,,Clear,210,2013-09-30 09:53:00
4:53 AM,60.1,35.1,39,29.64,10.0,SW,18.4,24.2,N/A,,Clear,230,2013-09-30 10:53:00
5:53 AM,60.1,35.1,39,29.63,10.0,SW,17.3,32.2,N/A,,Clear,230,2013-09-30 11:53:00
6:53 AM,61.0,34.0,36,29.64,10.0,SW,17.3,29.9,N/A,,Clear,220,2013-09-30 12:53:00
7:53 AM,57.9,34.0,41,29.63,10.0,South,10.4,19.6,N/A,,Clear,180,2013-09-30 13:53:00
8:53 AM,62.1,34.0,35,29.61,10.0,SW,18.4,24.2,N/A,,Clear,220,2013-09-30 14:53:00
9:53 AM,64.9,34.0,32,29.60,10.0,SW,27.6,38.0,N/A,,Clear,220,2013-09-30 15:53:00
10:53 AM,66.0,33.1,29,29.61,10.0,SW,17.3,32.2,N/A,,Clear,220,2013-09-30 16:53:00
11:53 AM,68.0,33.1,27,29.61,10.0,SW,18.4,34.5,N/A,,Partly Cloudy,230,2013-09-30 17:53:00
12:53 PM,66.9,33.1,28,29.61,10.0,SW,26.5,50.6,N/A,,Partly Cloudy,220,2013-09-30 18:53:00
1:53 PM,66.0,35.1,32,29.59,10.0,Variable,4.6,20.7,N/A,,Mostly Cloudy,0,2013-09-30 19:53:00
2:13 PM,66.2,32.0,28,29.76,10.0,Variable,6.9,43.7,N/A,,Squalls,0,2013-09-30 20:13:00
2:53 PM,66.0,32.0,28,29.60,10.0,NW,6.9,-,N/A,,Scattered Clouds,310,2013-09-30 20:53:00
3:53 PM,68.0,32.0,26,29.59,10.0,Variable,6.9,-,N/A,,Clear,0,2013-09-30 21:53:00
4:53 PM,68.0,28.0,22,29.59,10.0,NW,15.0,24.2,N/A,,Clear,320,2013-09-30 22:53:00
5:53 PM,66.9,28.9,24,29.61,10.0,SW,23.0,34.5,N/A,,Clear,230,2013-09-30 23:53:00
6:53 PM,64.0,30.9,29,29.64,10.0,Variable,5.8,-,N/A,,Partly Cloudy,0,2013-10-01 00:53:00
7:53 PM,63.0,32.0,31,29.68,10.0,Calm,Calm,-,N/A,,Overcast,0,2013-10-01 01:53:00
8:53 PM,64.0,30.0,28,29.70,10.0,NW,11.5,17.3,N/A,,Mostly Cloudy,310,2013-10-01 02:53:00
9:53 PM,60.1,32.0,35,29.73,10.0,North,5.8,-,N/A,,Mostly Cloudy,360,2013-10-01 03:53:00
10:53 PM,57.9,33.1,39,29.77,10.0,South,6.9,-,N/A,,Mostly Cloudy,180,2013-10-01 04:53:00
11:53 PM,52.0,35.1,53,29.79,10.0,SE,6.9,-,N/A,,Clear,130,2013-10-01 05:53:00